MTI 1 26102U 00014A 21021.70537770 .00005657 00000-0 75798-4 0 9991 2 26102 97.4805 280.7038 0007771 130.1848 230.0089 15.58399480158470 CFESAT 1 30777U 07006F 21021.35405665 .00003499 00000-0 91511-4 0 9993 2 30777 35.4262 1.4341 0004193 353.7368 6.3306 15.38362914770018 SPIRALE A 1 33751U 09008C 21021.40750443 .00000085 00000-0 51327-3 0 9993 2 33751 2.0662 12.1376 5375513 14.0433 356.4237 4.58772600171290 SPIRALE B 1 33752U 09008D 21021.32974052 .00001436 00000-0 41948-3 0 9998 2 33752 2.1610 30.0194 6901052 324.7731 4.8061 2.76383928110772 SAPPHIRE 1 39088U 13009C 21021.84702501 -.00000008 00000-0 12523-4 0 9990 2 39088 98.4531 224.6376 0011424 3.0999 357.0255 14.34230883413801